| time (UTC) | temp C | wind direction | speed KPH | gust KPH | rain 1hr cm | rain 24hr cm | rain mn cm | humidity % | barometer mb |
| 20260510220522 | 20 | 30 | 9.7 | 22.5 | 0.00 | 0.28 | 0.28 | 29 | 1024.0 |
| 20260510220046 | 20 | 65 | 11.3 | 22.5 | 0.00 | 0.28 | 0.28 | 31 | 1024.0 |
| 20260510215522 | 20 | 96 | 12.9 | 22.5 | 0.00 | 0.28 | 0.28 | 30 | 1024.0 |
| 20260510215022 | 20 | 62 | 4.8 | 17.7 | 0.00 | 0.28 | 0.28 | 29 | 1024.1 |
| 20260510214542 | 20 | 88 | 4.8 | 17.7 | 0.00 | 0.28 | 0.28 | 29 | 1024.1 |
| 20260510214022 | 20 | 47 | 9.7 | 17.7 | 0.00 | 0.28 | 0.28 | 29 | 1024.2 |
| 20260510213521 | 20 | 29 | 6.4 | 16.1 | 0.00 | 0.28 | 0.28 | 28 | 1024.1 |
| 20260510213057 | 20 | 51 | 6.4 | 17.7 | 0.00 | 0.28 | 0.28 | 29 | 1024.0 |
| 20260510212522 | 20 | 87 | 6.4 | 19.3 | 0.00 | 0.28 | 0.28 | 29 | 1024.2 |
| 20260510212021 | 19 | 100 | 8.0 | 19.3 | 0.00 | 0.28 | 0.28 | 29 | 1024.1 |
| 20260510211545 | 19 | 78 | 11.3 | 17.7 | 0.00 | 0.28 | 0.28 | 28 | 1024.2 |
| 20260510211022 | 19 | 55 | 6.4 | 19.3 | 0.00 | 0.28 | 0.28 | 30 | 1024.4 |
| 20260510210523 | 19 | 40 | 11.3 | 19.3 | 0.00 | 0.28 | 0.28 | 31 | 1024.4 |
| 20260510210040 | 19 | 71 | 8.0 | 17.7 | 0.00 | 0.28 | 0.28 | 31 | 1024.4 |
| 20260510205522 | 19 | 60 | 6.4 | 25.7 | 0.00 | 0.28 | 0.28 | 31 | 1024.5 |
| 20260510205023 | 19 | 89 | 9.7 | 25.7 | 0.00 | 0.28 | 0.28 | 30 | 1024.6 |
| 20260510204540 | 19 | 93 | 16.1 | 22.5 | 0.00 | 0.28 | 0.28 | 32 | 1024.5 |
| 20260510204025 | 19 | 102 | 9.7 | 25.7 | 0.00 | 0.28 | 0.28 | 29 | 1024.6 |
| 20260510203521 | 19 | 72 | 14.5 | 25.7 | 0.00 | 0.28 | 0.28 | 30 | 1024.8 |
| 20260510203044 | 18 | 47 | 12.9 | 30.6 | 0.00 | 0.28 | 0.28 | 32 | 1024.8 |
| 20260510202522 | 18 | 69 | 14.5 | 30.6 | 0.00 | 0.28 | 0.28 | 33 | 1024.8 |
| 20260510202022 | 19 | 42 | 17.7 | 30.6 | 0.00 | 0.28 | 0.28 | 33 | 1024.9 |
| 20260510201550 | 18 | 49 | 17.7 | 30.6 | 0.00 | 0.28 | 0.28 | 34 | 1025.0 |
| 20260510201025 | 18 | 40 | 16.1 | 29.0 | 0.00 | 0.28 | 0.28 | 35 | 1024.9 |
| 20260510200521 | 18 | 47 | 19.3 | 29.0 | 0.00 | 0.28 | 0.28 | 34 | 1025.0 |
| 20260510200041 | 18 | 69 | 12.9 | 29.0 | 0.00 | 0.28 | 0.28 | 36 | 1025.0 |
| 20260510195523 | 18 | 67 | 16.1 | 29.0 | 0.00 | 0.28 | 0.28 | 35 | 1024.8 |
| 20260510195021 | 18 | 74 | 19.3 | 29.0 | 0.00 | 0.28 | 0.28 | 35 | 1024.8 |
| 20260510194542 | 18 | 44 | 19.3 | 29.0 | 0.00 | 0.28 | 0.28 | 36 | 1024.8 |
| 20260510194026 | 18 | 73 | 17.7 | 30.6 | 0.00 | 0.28 | 0.28 | 37 | 1024.8 |
| 20260510193522 | 18 | 67 | 19.3 | 30.6 | 0.00 | 0.28 | 0.28 | 36 | 1024.9 |
| 20260510193043 | 18 | 52 | 16.1 | 32.2 | 0.00 | 0.28 | 0.28 | 38 | 1024.7 |
| 20260510192522 | 18 | 58 | 24.1 | 32.2 | 0.00 | 0.28 | 0.28 | 37 | 1024.7 |
| 20260510192021 | 18 | 45 | 16.1 | 32.2 | 0.00 | 0.28 | 0.28 | 39 | 1024.7 |
| 20260510191551 | 17 | 76 | 12.9 | 29.0 | 0.00 | 0.28 | 0.28 | 40 | 1024.7 |
| 20260510191023 | 17 | 32 | 19.3 | 29.0 | 0.00 | 0.28 | 0.28 | 41 | 1024.7 |
| 20260510190520 | 17 | 54 | 19.3 | 29.0 | 0.00 | 0.28 | 0.28 | 41 | 1024.9 |
| 20260510190055 | 17 | 35 | 17.7 | 27.4 | 0.00 | 0.28 | 0.28 | 42 | 1025.0 |
| 20260510185523 | 17 | 55 | 17.7 | 25.7 | 0.00 | 0.28 | 0.28 | 42 | 1025.0 |
| 20260510185023 | 17 | 65 | 14.5 | 27.4 | 0.00 | 0.28 | 0.28 | 43 | 1025.0 |
| 20260510184541 | 17 | 54 | 17.7 | 29.0 | 0.00 | 0.28 | 0.28 | 45 | 1025.0 |
| 20260510184025 | 17 | 36 | 22.5 | 29.0 | 0.00 | 0.28 | 0.28 | 44 | 1025.2 |
| 20260510183527 | 18 | 16 | 14.5 | 32.2 | 0.00 | 0.28 | 0.28 | 47 | 1025.2 |
| 20260510183042 | 17 | 17 | 19.3 | 32.2 | 0.00 | 0.28 | 0.28 | 47 | 1025.1 |
| 20260510182521 | 16 | 69 | 19.3 | 32.2 | 0.00 | 0.28 | 0.28 | 47 | 1025.0 |
| 20260510182021 | 17 | 90 | 17.7 | 29.0 | 0.00 | 0.28 | 0.28 | 50 | 1025.1 |
| 20260510181544 | 16 | 66 | 20.9 | 30.6 | 0.00 | 0.28 | 0.28 | 48 | 1025.0 |
| 20260510181022 | 16 | 61 | 19.3 | 30.6 | 0.00 | 0.28 | 0.28 | 49 | 1025.2 |
| 20260510180523 | 16 | 61 | 17.7 | 25.7 | 0.00 | 0.28 | 0.28 | 49 | 1025.1 |
| 20260510180052 | 16 | 57 | 16.1 | 32.2 | 0.00 | 0.28 | 0.28 | 49 | 1025.4 |
| 20260510175522 | 16 | 37 | 19.3 | 32.2 | 0.00 | 0.28 | 0.28 | 51 | 1025.3 |
| 20260510175022 | 16 | 40 | 17.7 | 27.4 | 0.00 | 0.28 | 0.28 | 51 | 1025.1 |
| 20260510174542 | 16 | 44 | 17.7 | 27.4 | 0.00 | 0.28 | 0.28 | 50 | 1025.1 |
| 20260510174024 | 16 | 38 | 16.1 | 25.7 | 0.00 | 0.28 | 0.28 | 53 | 1025.2 |
| 20260510173526 | 15 | 62 | 16.1 | 25.7 | 0.00 | 0.28 | 0.28 | 56 | 1025.2 |
| 20260510173047 | 15 | 67 | 14.5 | 25.7 | 0.00 | 0.28 | 0.28 | 56 | 1025.1 |
| 20260510172521 | 15 | 61 | 16.1 | 27.4 | 0.00 | 0.28 | 0.28 | 58 | 1025.0 |
| 20260510172021 | 15 | 66 | 14.5 | 27.4 | 0.00 | 0.28 | 0.28 | 60 | 1025.1 |
| 20260510171544 | 14 | 69 | 17.7 | 27.4 | 0.00 | 0.28 | 0.28 | 61 | 1025.2 |
| 20260510171049 | 13 | 59 | 14.5 | 22.5 | 0.00 | 0.28 | 0.28 | 63 | 1025.0 |
| 20260510170529 | 13 | 57 | 12.9 | 24.1 | 0.00 | 0.28 | 0.28 | 63 | 1025.2 |
| 20260510170040 | 13 | 64 | 16.1 | 24.1 | 0.00 | 0.28 | 0.28 | 63 | 1025.2 |
| 20260510165521 | 14 | 44 | 14.5 | 25.7 | 0.00 | 0.28 | 0.28 | 65 | 1025.2 |
| 20260510165021 | 13 | 55 | 17.7 | 27.4 | 0.00 | 0.28 | 0.28 | 67 | 1025.2 |
| 20260510164601 | 13 | 65 | 19.3 | 27.4 | 0.00 | 0.28 | 0.28 | 68 | 1025.2 |
| 20260510164022 | 13 | 40 | 14.5 | 27.4 | 0.00 | 0.28 | 0.28 | 71 | 1025.2 |
| 20260510163522 | 13 | 59 | 14.5 | 27.4 | 0.00 | 0.28 | 0.28 | 72 | 1025.1 |
| 20260510163104 | 12 | 49 | 19.3 | 25.7 | 0.00 | 0.28 | 0.28 | 71 | 1025.1 |
| 20260510162521 | 12 | 39 | 17.7 | 24.1 | 0.00 | 0.28 | 0.28 | 74 | 1025.0 |
| 20260510162023 | 12 | 46 | 12.9 | 24.1 | 0.00 | 0.28 | 0.28 | 77 | 1025.2 |
| 20260510161543 | 12 | 48 | 14.5 | 24.1 | 0.00 | 0.28 | 0.28 | 76 | 1024.9 |
| 20260510161022 | 12 | 34 | 16.1 | 22.5 | 0.00 | 0.28 | 0.28 | 77 | 1024.8 |
| 20260510160522 | 11 | 63 | 14.5 | 25.7 | 0.00 | 0.28 | 0.28 | 80 | 1024.7 |
| 20260510160045 | 11 | 74 | 16.1 | 27.4 | 0.00 | 0.28 | 0.28 | 78 | 1024.6 |
| 20260510155521 | 11 | 36 | 16.1 | 27.4 | 0.03 | 0.28 | 0.28 | 80 | 1024.4 |
| 20260510155021 | 10 | 58 | 17.7 | 29.0 | 0.03 | 0.28 | 0.28 | 80 | 1024.3 |
| 20260510154540 | 10 | 65 | 16.1 | 29.0 | 0.03 | 0.28 | 0.28 | 81 | 1024.0 |
| 20260510154021 | 10 | 50 | 19.3 | 29.0 | 0.05 | 0.28 | 0.28 | 81 | 1024.0 |
| 20260510153523 | 10 | 53 | 17.7 | 29.0 | 0.05 | 0.28 | 0.28 | 82 | 1024.0 |
| 20260510153055 | 9 | 61 | 20.9 | 29.0 | 0.05 | 0.28 | 0.28 | 83 | 1024.0 |
| 20260510152522 | 9 | 45 | 16.1 | 25.7 | 0.05 | 0.28 | 0.28 | 83 | 1023.8 |
| 20260510152022 | 9 | 45 | 16.1 | 25.7 | 0.05 | 0.28 | 0.28 | 84 | 1023.5 |
| 20260510151542 | 8 | 49 | 17.7 | 25.7 | 0.08 | 0.28 | 0.28 | 84 | 1023.4 |
| 20260510151022 | 8 | 44 | 16.1 | 24.1 | 0.08 | 0.28 | 0.28 | 84 | 1023.5 |
| 20260510150525 | 8 | 57 | 14.5 | 24.1 | 0.10 | 0.28 | 0.28 | 84 | 1023.6 |
| 20260510150051 | 8 | 47 | 16.1 | 25.7 | 0.15 | 0.28 | 0.28 | 84 | 1023.9 |
| 20260510145521 | 8 | 39 | 16.1 | 30.6 | 0.18 | 0.25 | 0.25 | 84 | 1023.9 |
| 20260510145022 | 8 | 49 | 17.7 | 30.6 | 0.23 | 0.25 | 0.25 | 84 | 1023.8 |
| 20260510144547 | 8 | 69 | 20.9 | 32.2 | 0.25 | 0.25 | 0.25 | 84 | 1023.2 |
| 20260510144022 | 8 | 69 | 20.9 | 32.2 | 0.23 | 0.23 | 0.23 | 84 | 1022.9 |
| 20260510143522 | 8 | 60 | 22.5 | 32.2 | 0.23 | 0.23 | 0.23 | 84 | 1023.1 |
| 20260510143056 | 8 | 36 | 19.3 | 30.6 | 0.23 | 0.23 | 0.23 | 84 | 1023.4 |
| 20260510142523 | 8 | 46 | 19.3 | 32.2 | 0.23 | 0.23 | 0.23 | 84 | 1023.1 |
| 20260510142022 | 8 | 51 | 22.5 | 32.2 | 0.23 | 0.23 | 0.23 | 84 | 1023.0 |
| 20260510141540 | 8 | 30 | 22.5 | 32.2 | 0.20 | 0.20 | 0.20 | 83 | 1023.3 |
| 20260510141022 | 8 | 34 | 20.9 | 32.2 | 0.20 | 0.20 | 0.20 | 83 | 1023.6 |
| 20260510140520 | 8 | 36 | 22.5 | 33.8 | 0.15 | 0.15 | 0.15 | 83 | 1023.5 |
| 20260510140036 | 8 | 26 | 24.1 | 35.4 | 0.13 | 0.13 | 0.13 | 83 | 1023.8 |
| 20260510135523 | 8 | 26 | 20.9 | 37.0 | 0.08 | 0.08 | 0.08 | 82 | 1024.0 |
| 20260510135021 | 8 | 18 | 25.7 | 40.2 | 0.03 | 0.03 | 0.03 | 82 | 1024.3 |
| 20260510134542 | 9 | 360 | 25.7 | 40.2 | 0.00 | 0.00 | 0.00 | 81 | 1024.0 |
| 20260510134022 | 9 | 5 | 25.7 | 38.6 | 0.00 | 0.00 | 0.00 | 80 | 1023.7 |
| 20260510133519 | 9 | 348 | 27.4 | 38.6 | 0.00 | 0.00 | 0.00 | 79 | 1023.5 |
| 20260510133044 | 9 | 360 | 27.4 | 38.6 | 0.00 | 0.00 | 0.00 | 78 | 1023.6 |
| 20260510132524 | 9 | 13 | 22.5 | 37.0 | 0.00 | 0.00 | 0.00 | 78 | 1023.3 |
| 20260510132022 | 9 | 11 | 25.7 | 38.6 | 0.00 | 0.00 | 0.00 | 78 | 1023.1 |
| 20260510131549 | 10 | 344 | 25.7 | 38.6 | 0.00 | 0.00 | 0.00 | 79 | 1022.8 |
| 20260510131020 | 10 | 15 | 27.4 | 38.6 | 0.00 | 0.00 | 0.00 | 79 | 1022.7 |
| 20260510130521 | 10 | 360 | 27.4 | 38.6 | 0.00 | 0.00 | 0.00 | 79 | 1022.6 |
| 20260510130041 | 10 | 15 | 25.7 | 37.0 | 0.00 | 0.00 | 0.00 | 78 | 1022.5 |
| 20260510125520 | 10 | 19 | 25.7 | 35.4 | 0.00 | 0.00 | 0.00 | 77 | 1022.4 |
| 20260510125021 | 10 | 15 | 24.1 | 33.8 | 0.00 | 0.00 | 0.00 | 76 | 1022.4 |
| 20260510124547 | 10 | 19 | 24.1 | 35.4 | 0.00 | 0.00 | 0.00 | 75 | 1022.4 |
| 20260510124025 | 10 | 16 | 22.5 | 35.4 | 0.00 | 0.00 | 0.00 | 74 | 1022.1 |
| 20260510123522 | 10 | 19 | 25.7 | 35.4 | 0.00 | 0.00 | 0.00 | 73 | 1022.0 |
| 20260510123042 | 11 | 25 | 24.1 | 35.4 | 0.00 | 0.00 | 0.00 | 73 | 1022.0 |
| 20260510122521 | 11 | 12 | 25.7 | 35.4 | 0.00 | 0.00 | 0.00 | 72 | 1021.7 |
| 20260510122023 | 11 | 17 | 22.5 | 33.8 | 0.00 | 0.00 | 0.00 | 71 | 1021.8 |
| 20260510121540 | 11 | 10 | 20.9 | 32.2 | 0.00 | 0.00 | 0.00 | 69 | 1021.6 |
| 20260510121022 | 11 | 22 | 22.5 | 32.2 | 0.00 | 0.00 | 0.00 | 68 | 1021.6 |
| 20260510120522 | 11 | 16 | 20.9 | 32.2 | 0.00 | 0.00 | 0.00 | 66 | 1021.4 |
| 20260510120041 | 11 | 19 | 22.5 | 38.6 | 0.00 | 0.00 | 0.00 | 64 | 1021.4 |
| 20260510115521 | 11 | 22 | 24.1 | 38.6 | 0.00 | 0.00 | 0.00 | 63 | 1021.1 |
| 20260510115022 | 11 | 19 | 24.1 | 45.1 | 0.00 | 0.00 | 0.00 | 64 | 1021.1 |
| 20260510114545 | 12 | 20 | 27.4 | 45.1 | 0.00 | 0.00 | 0.00 | 63 | 1021.0 |
| 20260510114022 | 12 | 40 | 20.9 | 30.6 | 0.00 | 0.00 | 0.00 | 61 | 1020.9 |
| 20260510113521 | 12 | 22 | 16.1 | 29.0 | 0.00 | 0.00 | 0.00 | 60 | 1020.7 |
| 20260510113036 | 12 | 24 | 17.7 | 29.0 | 0.00 | 0.00 | 0.00 | 59 | 1020.5 |
| 20260510112525 | 12 | 27 | 22.5 | 29.0 | 0.00 | 0.00 | 0.00 | 59 | 1020.3 |
| 20260510112021 | 12 | 44 | 19.3 | 29.0 | 0.00 | 0.00 | 0.00 | 60 | 1019.9 |
| 20260510111542 | 12 | 59 | 16.1 | 25.7 | 0.00 | 0.00 | 0.00 | 60 | 1019.6 |
| 20260510111021 | 12 | 54 | 17.7 | 27.4 | 0.00 | 0.00 | 0.00 | 60 | 1019.1 |
| 20260510110522 | 12 | 57 | 17.7 | 29.0 | 0.00 | 0.00 | 0.00 | 60 | 1018.8 |
| 20260510110041 | 12 | 78 | 19.3 | 29.0 | 0.00 | 0.00 | 0.00 | 60 | 1018.4 |
| 20260510105522 | 12 | 63 | 17.7 | 29.0 | 0.00 | 0.00 | 0.00 | 60 | 1018.3 |
| 20260510105022 | 12 | 71 | 19.3 | 29.0 | 0.00 | 0.00 | 0.00 | 59 | 1018.4 |
| 20260510104549 | 12 | 77 | 19.3 | 33.8 | 0.00 | 0.00 | 0.00 | 59 | 1018.6 |
| 20260510104024 | 12 | 76 | 17.7 | 33.8 | 0.00 | 0.00 | 0.00 | 59 | 1018.8 |
| 20260510103521 | 12 | 76 | 19.3 | 35.4 | 0.00 | 0.00 | 0.00 | 59 | 1018.8 |
| 20260510103038 | 12 | 63 | 22.5 | 35.4 | 0.00 | 0.00 | 0.00 | 58 | 1018.7 |
| 20260510102521 | 13 | 64 | 19.3 | 35.4 | 0.00 | 0.00 | 0.00 | 58 | 1018.9 |
| 20260510102019 | 13 | 69 | 22.5 | 37.0 | 0.00 | 0.00 | 0.00 | 58 | 1018.8 |
| 20260510101536 | 13 | 59 | 24.1 | 37.0 | 0.00 | 0.00 | 0.00 | 58 | 1018.7 |
| 20260510101022 | 13 | 51 | 24.1 | 33.8 | 0.00 | 0.00 | 0.00 | 58 | 1018.8 |
| 20260510100527 | 13 | 49 | 22.5 | 32.2 | 0.00 | 0.00 | 0.00 | 58 | 1019.1 |
| 20260510095521 | 13 | 53 | 19.3 | 30.6 | 0.00 | 0.00 | 0.00 | 59 | 1019.2 |
| 20260510095024 | 13 | 34 | 19.3 | 30.6 | 0.00 | 0.00 | 0.00 | 59 | 1019.2 |
| 20260510094553 | 13 | 51 | 19.3 | 32.2 | 0.00 | 0.00 | 0.00 | 60 | 1019.3 |
| 20260510094021 | 13 | 55 | 17.7 | 32.2 | 0.00 | 0.00 | 0.00 | 60 | 1019.0 |
| 20260510093522 | 13 | 55 | 20.9 | 32.2 | 0.00 | 0.00 | 0.00 | 60 | 1018.6 |
| 20260510093042 | 13 | 55 | 20.9 | 32.2 | 0.00 | 0.00 | 0.00 | 61 | 1018.6 |
| 20260510092522 | 13 | 74 | 19.3 | 35.4 | 0.00 | 0.00 | 0.00 | 62 | 1018.6 |
| 20260510092022 | 13 | 35 | 20.9 | 35.4 | 0.00 | 0.00 | 0.00 | 62 | 1018.3 |
| 20260510091539 | 13 | 46 | 25.7 | 37.0 | 0.00 | 0.00 | 0.00 | 62 | 1018.3 |
| 20260510091019 | 13 | 45 | 19.3 | 37.0 | 0.00 | 0.00 | 0.00 | 62 | 1018.2 |
| 20260510090522 | 13 | 44 | 24.1 | 38.6 | 0.00 | 0.00 | 0.00 | 62 | 1018.2 |
| 20260510090046 | 13 | 34 | 25.7 | 38.6 | 0.00 | 0.00 | 0.00 | 62 | 1018.2 |
| 20260510085520 | 13 | 55 | 22.5 | 35.4 | 0.00 | 0.00 | 0.00 | 62 | 1018.0 |
| 20260510085026 | 13 | 49 | 24.1 | 37.0 | 0.00 | 0.00 | 0.00 | 62 | 1018.1 |
| 20260510084544 | 13 | 59 | 25.7 | 37.0 | 0.00 | 0.00 | 0.00 | 62 | 1017.9 |
| 20260510084024 | 13 | 48 | 24.1 | 41.8 | 0.00 | 0.00 | 0.00 | 62 | 1018.0 |
| 20260510083521 | 13 | 30 | 25.7 | 41.8 | 0.00 | 0.00 | 0.00 | 62 | 1018.1 |
| 20260510083045 | 13 | 55 | 24.1 | 38.6 | 0.00 | 0.00 | 0.00 | 63 | 1018.1 |
| 20260510082521 | 13 | 50 | 24.1 | 40.2 | 0.00 | 0.00 | 0.00 | 63 | 1017.9 |
| 20260510082022 | 13 | 39 | 25.7 | 40.2 | 0.00 | 0.00 | 0.00 | 63 | 1018.1 |
| 20260510081550 | 13 | 50 | 25.7 | 37.0 | 0.00 | 0.00 | 0.00 | 64 | 1017.9 |
| 20260510081022 | 13 | 30 | 25.7 | 38.6 | 0.00 | 0.00 | 0.00 | 64 | 1017.8 |
| 20260510080522 | 13 | 32 | 24.1 | 40.2 | 0.00 | 0.00 | 0.00 | 63 | 1018.1 |
| 20260510075521 | 13 | 37 | 25.7 | 40.2 | 0.00 | 0.00 | 0.00 | 63 | 1018.0 |
| 20260510075021 | 13 | 49 | 27.4 | 38.6 | 0.00 | 0.00 | 0.00 | 63 | 1018.0 |
| 20260510074539 | 13 | 40 | 24.1 | 37.0 | 0.00 | 0.00 | 0.00 | 63 | 1017.8 |
| 20260510074021 | 13 | 46 | 25.7 | 37.0 | 0.00 | 0.00 | 0.00 | 63 | 1017.9 |
| 20260510073521 | 13 | 46 | 25.7 | 38.6 | 0.00 | 0.00 | 0.00 | 63 | 1018.0 |
| 20260510073036 | 13 | 40 | 27.4 | 40.2 | 0.00 | 0.00 | 0.00 | 64 | 1018.0 |
| 20260510072522 | 13 | 34 | 25.7 | 40.2 | 0.00 | 0.00 | 0.00 | 64 | 1017.9 |
| 20260510072022 | 13 | 46 | 27.4 | 40.2 | 0.00 | 0.00 | 0.00 | 65 | 1018.0 |
| 20260510071547 | 13 | 40 | 24.1 | 40.2 | 0.00 | 0.00 | 0.00 | 66 | 1017.9 |
| 20260510071021 | 13 | 33 | 25.7 | 38.6 | 0.00 | 0.00 | 0.00 | 67 | 1018.0 |
| 20260510070524 | 13 | 30 | 20.9 | 33.8 | 0.00 | 0.00 | 0.00 | 68 | 1018.0 |
| 20260510070050 | 13 | 66 | 22.5 | 33.8 | 0.00 | 0.00 | 0.00 | 69 | 1017.9 |
| 20260510065521 | 13 | 39 | 24.1 | 37.0 | 0.00 | 0.00 | 0.00 | 71 | 1017.9 |
| 20260510065021 | 13 | 39 | 24.1 | 37.0 | 0.00 | 0.00 | 0.00 | 72 | 1017.9 |
| 20260510064542 | 13 | 30 | 20.9 | 33.8 | 0.00 | 0.00 | 0.00 | 74 | 1017.8 |
| 20260510064021 | 13 | 26 | 20.9 | 29.0 | 0.00 | 0.00 | 0.00 | 75 | 1017.6 |
| 20260510063521 | 13 | 38 | 20.9 | 29.0 | 0.00 | 0.00 | 0.00 | 75 | 1017.4 |
| 20260510063047 | 12 | 30 | 20.9 | 27.4 | 0.00 | 0.00 | 0.00 | 75 | 1017.7 |
| 20260510062521 | 12 | 29 | 19.3 | 25.7 | 0.00 | 0.00 | 0.00 | 75 | 1017.7 |
| 20260510062026 | 12 | 5 | 17.7 | 25.7 | 0.00 | 0.00 | 0.00 | 75 | 1017.8 |
| 20260510061536 | 13 | 27 | 17.7 | 25.7 | 0.00 | 0.00 | 0.00 | 75 | 1017.2 |
| 20260510061026 | 13 | 30 | 14.5 | 25.7 | 0.00 | 0.00 | 0.00 | 75 | 1016.6 |
| 20260510060521 | 12 | 45 | 17.7 | 25.7 | 0.00 | 0.00 | 0.00 | 75 | 1016.2 |
| 20260510060036 | 12 | 62 | 16.1 | 24.1 | 0.00 | 0.00 | 0.00 | 75 | 1015.4 |
| 20260510055522 | 12 | 46 | 16.1 | 24.1 | 0.00 | 0.00 | 0.00 | 74 | 1015.3 |
| 20260510055021 | 12 | 53 | 16.1 | 24.1 | 0.00 | 0.00 | 0.00 | 74 | 1015.0 |
| 20260510054545 | 12 | 60 | 16.1 | 24.1 | 0.00 | 0.00 | 0.00 | 73 | 1015.0 |
| 20260510054022 | 13 | 54 | 17.7 | 27.4 | 0.00 | 0.00 | 0.00 | 73 | 1015.0 |
| 20260510053522 | 13 | 51 | 19.3 | 27.4 | 0.00 | 0.00 | 0.00 | 72 | 1014.8 |
| 20260510053043 | 13 | 30 | 16.1 | 20.9 | 0.00 | 0.00 | 0.00 | 71 | 1014.6 |
| 20260510052520 | 13 | 64 | 14.5 | 20.9 | 0.00 | 0.00 | 0.00 | 69 | 1014.5 |
| 20260510052023 | 14 | 58 | 12.9 | 20.9 | 0.00 | 0.00 | 0.00 | 69 | 1014.5 |
| 20260510051546 | 14 | 69 | 14.5 | 19.3 | 0.00 | 0.00 | 0.00 | 69 | 1014.3 |
| 20260510051022 | 14 | 76 | 11.3 | 19.3 | 0.00 | 0.00 | 0.00 | 68 | 1014.4 |
| 20260510050521 | 14 | 68 | 14.5 | 20.9 | 0.00 | 0.00 | 0.00 | 69 | 1014.4 |
| 20260510050042 | 14 | 73 | 12.9 | 20.9 | 0.00 | 0.00 | 0.00 | 68 | 1014.1 |
| 20260510045524 | 14 | 63 | 12.9 | 19.3 | 0.00 | 0.00 | 0.00 | 67 | 1014.0 |
| 20260510045025 | 15 | 80 | 12.9 | 20.9 | 0.00 | 0.00 | 0.00 | 66 | 1014.1 |
| 20260510044540 | 15 | 70 | 14.5 | 20.9 | 0.00 | 0.00 | 0.00 | 66 | 1014.2 |
| 20260510044024 | 15 | 79 | 14.5 | 20.9 | 0.00 | 0.00 | 0.00 | 65 | 1014.1 |
| 20260510043522 | 15 | 80 | 12.9 | 19.3 | 0.00 | 0.00 | 0.00 | 64 | 1013.9 |
| 20260510043050 | 16 | 83 | 12.9 | 22.5 | 0.00 | 0.00 | 0.00 | 63 | 1013.7 |
| 20260510042522 | 16 | 91 | 14.5 | 25.7 | 0.00 | 0.00 | 0.00 | 62 | 1013.7 |
| 20260510042021 | 16 | 101 | 16.1 | 29.0 | 0.00 | 0.00 | 0.00 | 61 | 1013.5 |
| 20260510041540 | 16 | 110 | 16.1 | 29.0 | 0.00 | 0.00 | 0.00 | 60 | 1013.5 |
| 20260510041022 | 16 | 111 | 20.9 | 29.0 | 0.00 | 0.00 | 0.00 | 60 | 1013.5 |
| 20260510040523 | 16 | 113 | 16.1 | 25.7 | 0.00 | 0.00 | 0.00 | 61 | 1013.3 |
| 20260510040056 | 16 | 90 | 11.3 | 20.9 | 0.00 | 0.00 | 0.00 | 60 | 1013.3 |
| 20260510035521 | 17 | 103 | 12.9 | 29.0 | 0.00 | 0.00 | 0.00 | 58 | 1013.2 |
| 20260510035021 | 17 | 108 | 16.1 | 29.0 | 0.00 | 0.00 | 0.00 | 57 | 1013.1 |
| 20260510034545 | 17 | 123 | 19.3 | 29.0 | 0.00 | 0.00 | 0.00 | 57 | 1013.2 |
| 20260510034022 | 17 | 130 | 17.7 | 25.7 | 0.00 | 0.00 | 0.00 | 59 | 1012.8 |
| 20260510033522 | 16 | 119 | 12.9 | 20.9 | 0.00 | 0.00 | 0.00 | 61 | 1012.7 |
| 20260510033053 | 17 | 104 | 11.3 | 27.4 | 0.00 | 0.00 | 0.00 | 60 | 1012.4 |
| 20260510032521 | 17 | 87 | 17.7 | 29.0 | 0.00 | 0.00 | 0.00 | 59 | 1012.0 |
| 20260510032021 | 17 | 74 | 17.7 | 29.0 | 0.00 | 0.00 | 0.00 | 59 | 1012.0 |
| 20260510031539 | 17 | 61 | 17.7 | 27.4 | 0.00 | 0.00 | 0.00 | 59 | 1011.6 |
| 20260510031022 | 17 | 67 | 19.3 | 29.0 | 0.00 | 0.00 | 0.00 | 59 | 1011.5 |
| 20260510030521 | 17 | 58 | 17.7 | 33.8 | 0.00 | 0.00 | 0.00 | 57 | 1011.2 |
| 20260510030046 | 18 | 35 | 22.5 | 37.0 | 0.00 | 0.00 | 0.00 | 56 | 1011.1 |
| 20260510025522 | 18 | 43 | 24.1 | 37.0 | 0.00 | 0.00 | 0.00 | 55 | 1010.9 |
| 20260510025023 | 18 | 17 | 24.1 | 35.4 | 0.00 | 0.00 | 0.00 | 54 | 1010.7 |
| 20260510024538 | 18 | 42 | 24.1 | 35.4 | 0.00 | 0.00 | 0.00 | 53 | 1010.6 |
| 20260510024022 | 18 | 360 | 22.5 | 35.4 | 0.00 | 0.00 | 0.00 | 52 | 1010.5 |
| 20260510023522 | 19 | 13 | 24.1 | 33.8 | 0.00 | 0.00 | 0.00 | 51 | 1010.3 |
| 20260510023040 | 19 | 10 | 22.5 | 33.8 | 0.00 | 0.00 | 0.00 | 49 | 1010.3 |
| 20260510022525 | 20 | 5 | 22.5 | 35.4 | 0.00 | 0.00 | 0.00 | 48 | 1010.2 |
| 20260510022022 | 20 | 22 | 24.1 | 35.4 | 0.00 | 0.00 | 0.00 | 46 | 1010.0 |
| 20260510021538 | 21 | 15 | 24.1 | 35.4 | 0.00 | 0.00 | 0.00 | 44 | 1009.9 |
| 20260510021023 | 21 | 9 | 24.1 | 30.6 | 0.00 | 0.00 | 0.00 | 40 | 1009.5 |
| 20260510020525 | 22 | 9 | 19.3 | 25.7 | 0.00 | 0.00 | 0.00 | 35 | 1009.4 |
| 20260510020047 | 22 | 360 | 16.1 | 24.1 | 0.00 | 0.00 | 0.00 | 33 | 1009.4 |
| 20260510015522 | 22 | 347 | 12.9 | 19.3 | 0.00 | 0.00 | 0.00 | 34 | 1009.2 |
| 20260510015021 | 22 | 335 | 9.7 | 19.3 | 0.00 | 0.00 | 0.00 | 32 | 1008.8 |
| 20260510014546 | 23 | 350 | 12.9 | 19.3 | 0.00 | 0.00 | 0.00 | 31 | 1008.9 |
| 20260510014023 | 23 | 360 | 12.9 | 19.3 | 0.00 | 0.00 | 0.00 | 31 | 1008.6 |
| 20260510013523 | 23 | 346 | 14.5 | 19.3 | 0.00 | 0.00 | 0.00 | 30 | 1008.5 |
| 20260510013042 | 24 | 332 | 12.9 | 20.9 | 0.00 | 0.00 | 0.00 | 30 | 1008.4 |
| 20260510012522 | 25 | 336 | 12.9 | 22.5 | 0.00 | 0.00 | 0.00 | 29 | 1008.5 |
| 20260510012026 | 25 | 336 | 14.5 | 22.5 | 0.00 | 0.00 | 0.00 | 28 | 1008.2 |
| 20260510011544 | 26 | 338 | 16.1 | 25.7 | 0.00 | 0.00 | 0.00 | 27 | 1008.1 |
| 20260510011021 | 26 | 349 | 16.1 | 29.0 | 0.00 | 0.00 | 0.00 | 26 | 1008.0 |
| 20260510010522 | 26 | 349 | 17.7 | 30.6 | 0.00 | 0.00 | 0.00 | 25 | 1007.8 |
| 20260510010040 | 27 | 345 | 20.9 | 30.6 | 0.00 | 0.00 | 0.00 | 24 | 1007.6 |
| 20260510005522 | 27 | 352 | 20.9 | 30.6 | 0.00 | 0.00 | 0.00 | 24 | 1007.6 |
| 20260510005024 | 27 | 12 | 19.3 | 37.0 | 0.00 | 0.00 | 0.00 | 23 | 1007.6 |
| 20260510004539 | 28 | 11 | 24.1 | 37.0 | 0.00 | 0.00 | 0.00 | 23 | 1007.7 |
| 20260510004021 | 28 | 352 | 24.1 | 37.0 | 0.00 | 0.00 | 0.00 | 23 | 1007.7 |
| 20260510003522 | 28 | 352 | 25.7 | 37.0 | 0.00 | 0.00 | 0.00 | 22 | 1007.6 |
| 20260510003045 | 28 | 351 | 24.1 | 32.2 | 0.00 | 0.00 | 0.00 | 22 | 1007.7 |
| 20260510002522 | 29 | 323 | 20.9 | 30.6 | 0.00 | 0.00 | 0.00 | 22 | 1007.5 |
| 20260510002022 | 29 | 342 | 12.9 | 29.0 | 0.00 | 0.00 | 0.00 | 22 | 1007.5 |
| 20260510001544 | 29 | 337 | 17.7 | 33.8 | 0.00 | 0.00 | 0.00 | 22 | 1007.6 |
| 20260510001022 | 30 | 352 | 20.9 | 33.8 | 0.00 | 0.00 | 0.00 | 21 | 1007.5 |
| 20260510000522 | 30 | 5 | 20.9 | 30.6 | 0.00 | 0.00 | 0.00 | 20 | 1007.4 |
| 20260510000100 | 30 | 360 | 14.5 | 24.1 | 0.00 | 0.00 | 0.00 | 20 | 1007.4 |
| 20260509235526 | 30 | 335 | 16.1 | 30.6 | 0.00 | 0.00 | 0.00 | 20 | 1007.3 |
| 20260509235024 | 30 | 330 | 19.3 | 30.6 | 0.00 | 0.00 | 0.00 | 20 | 1007.4 |
| 20260509234553 | 30 | 334 | 17.7 | 27.4 | 0.00 | 0.00 | 0.00 | 20 | 1007.5 |
| 20260509234022 | 30 | 315 | 16.1 | 33.8 | 0.00 | 0.00 | 0.00 | 19 | 1007.3 |
| 20260509233526 | 30 | 319 | 20.9 | 33.8 | 0.00 | 0.00 | 0.00 | 19 | 1007.4 |
| 20260509233046 | 30 | 337 | 17.7 | 27.4 | 0.00 | 0.00 | 0.00 | 19 | 1007.6 |
| 20260509232525 | 30 | 328 | 17.7 | 30.6 | 0.00 | 0.00 | 0.00 | 18 | 1007.6 |
| 20260509232022 | 30 | 325 | 20.9 | 30.6 | 0.00 | 0.00 | 0.00 | 19 | 1007.5 |
| 20260509231544 | 31 | 5 | 17.7 | 29.0 | 0.00 | 0.00 | 0.00 | 20 | 1007.6 |
| 20260509231022 | 31 | 352 | 20.9 | 29.0 | 0.00 | 0.00 | 0.00 | 19 | 1007.6 |
| 20260509230524 | 31 | 5 | 14.5 | 32.2 | 0.00 | 0.00 | 0.00 | 19 | 1007.5 |
| 20260509230044 | 31 | 331 | 16.1 | 32.2 | 0.00 | 0.00 | 0.00 | 19 | 1007.6 |
| 20260509225522 | 31 | 5 | 9.7 | 32.2 | 0.00 | 0.00 | 0.00 | 19 | 1007.7 |
| 20260509225018 | 30 | 47 | 12.9 | 32.2 | 0.00 | 0.00 | 0.00 | 21 | 1007.5 |
| 20260509224542 | 29 | 213 | 14.5 | 33.8 | 0.00 | 0.00 | 0.00 | 24 | 1007.7 |
| 20260509224021 | 30 | 219 | 16.1 | 33.8 | 0.00 | 0.00 | 0.00 | 24 | 1007.7 |
| 20260509223522 | 30 | 282 | 20.9 | 33.8 | 0.00 | 0.00 | 0.00 | 23 | 1007.5 |
| 20260509223043 | 30 | 204 | 17.7 | 33.8 | 0.00 | 0.00 | 0.00 | 23 | 1007.2 |
| 20260509222522 | 30 | 179 | 19.3 | 33.8 | 0.00 | 0.00 | 0.00 | 26 | 1007.0 |
| 20260509222022 | 30 | 197 | 20.9 | 33.8 | 0.00 | 0.00 | 0.00 | 26 | 1007.0 |
| 20260509221540 | 28 | 168 | 22.5 | 33.8 | 0.00 | 0.00 | 0.00 | 29 | 1006.9 |
| 20260509221022 | 27 | 198 | 24.1 | 32.2 | 0.00 | 0.00 | 0.00 | 28 | 1006.9 |